ALLMENDG2 Weather Reports


time (UTC)temp
C
wind
direction
speed
KPH
gust
KPH
rain 1hr
cm
rain 24hr
cm
rain mn
cm
humidity
%
barometer
mb
20260507110210 14 90 6.4 0.0 0.00 0.00 0.15 71 1013.2
20260507103216 14 90 6.4 0.0 0.00 0.00 0.15 73 1013.2
20260507100212 12 90 6.4 0.0 0.00 0.00 0.15 77 1012.9
20260507093210 11 90 6.4 0.0 0.00 0.00 0.15 77 1012.8
20260507090211 11 90 6.4 0.0 0.00 0.00 0.15 79 1012.6
20260507083212 11 90 6.4 0.0 0.00 0.00 0.15 84 1012.5
20260507080211 10 90 6.4 0.0 0.00 0.00 0.15 85 1011.8
20260507073212 10 247 3.2 0.0 0.00 0.00 0.15 85 1012.0
20260507070212 8 202 8.0 0.0 0.00 0.00 0.00 83 1008.6
20260507063211 8 202 8.0 0.0 0.00 0.00 0.00 83 1008.6
20260507060211 8 202 8.0 0.0 0.00 0.00 0.00 83 1008.6
20260507053211 8 202 8.0 0.0 0.00 0.00 0.00 83 1008.6
20260507050213 8 202 8.0 0.0 0.00 0.00 0.00 83 1008.6
20260507043211 8 202 8.0 0.0 0.00 0.00 0.00 83 1008.6
20260507040216 8 202 8.0 0.0 0.00 0.00 0.00 83 1008.6
20260507033211 8 202 8.0 0.0 0.00 0.00 0.00 83 1008.6
20260507030211 8 202 8.0 0.0 0.00 0.00 0.00 83 1008.6
20260507023211 8 202 8.0 0.0 0.00 0.00 0.00 83 1008.6
20260507020211 8 202 8.0 0.0 0.00 0.00 0.00 83 1008.6
20260507013212 8 202 8.0 0.0 0.00 0.00 0.00 83 1008.6
20260507010211 8 202 8.0 0.0 0.00 0.00 0.00 83 1008.6
20260507003209 8 202 8.0 0.0 0.00 0.00 0.00 83 1008.6
20260507000209 8 202 8.0 0.0 0.00 0.00 0.00 83 1008.6
20260506233209 8 202 8.0 0.0 0.00 0.00 0.00 83 1008.6
20260506230209 8 202 8.0 0.0 0.00 0.00 0.00 82 1008.4
20260506223209 9 202 8.0 0.0 0.00 0.00 0.00 82 1008.4
20260506220209 10 202 8.0 0.0 0.00 0.00 0.28 81 1008.1
20260506213209 10 202 8.0 0.0 0.00 0.00 0.28 82 1007.8
20260506210210 10 202 8.0 0.0 0.00 0.00 0.28 82 1007.8
20260506203210 10 202 8.0 0.0 0.00 0.00 0.28 81 1007.9
20260506200210 10 202 8.0 0.0 0.00 0.00 0.28 82 1007.8
20260506193215 10 202 8.0 0.0 0.00 0.00 0.28 80 1007.0
20260506190211 11 202 8.0 0.0 0.00 0.00 0.28 80 1006.9
20260506183209 11 202 8.0 0.0 0.00 0.00 0.28 80 1006.7
20260506180216 11 202 8.0 0.0 0.00 0.00 0.28 79 1006.4
20260506173210 12 202 8.0 0.0 0.00 0.00 0.28 77 1005.9
20260506170215 12 202 8.0 0.0 0.00 0.00 0.28 77 1005.6
20260506163210 12 202 8.0 0.0 0.00 0.00 0.15 75 1005.7
20260506160210 13 225 0.0 0.0 0.00 0.00 0.08 71 1005.5
20260506153210 15 225 16.1 0.0 0.00 0.00 0.00 64 1004.4
20260506150210 18 225 19.3 0.0 0.00 0.00 0.00 57 1003.8
20260506143210 18 292 9.7 0.0 0.00 0.00 0.00 57 1004.2
20260506140210 18 225 0.0 0.0 0.00 0.00 0.00 57 1003.9
20260506133211 18 225 0.0 0.0 0.00 0.00 0.00 57 1003.9
20260506130211 18 225 0.0 0.0 0.00 0.00 0.00 58 1003.9
20260506123210 18 225 0.0 0.0 0.00 0.00 0.00 59 1003.9
20260506120210 17 225 0.0 0.0 0.00 0.00 0.00 60 1004.2
20260506113217 17 225 0.0 0.0 0.00 0.00 0.00 60 1004.2